Wind_Speed
58 57 56 55 53 50 48 47 45 44 41 39 37 35 35 33 30 28 29 28 30 33 33 37 38 39 38 36 33 25 26 26 26 24 21 21 22 19 19 21 18 17 22 21 18
59 59 59 58 55 53 52 50 47 46 44 42 41 39 37 36 34 33 34 33 34 35 37 33 37 37 37 35 30 24 22 23 24 23 21 21 20 15 19 19 18 17 24 21 18
58 61 61 60 58 56 53 52 51 50 48 45 45 43 43 41 38 37 37 35 36 36 36 33 35 35 36 35 28 23 21 20 21 20 19 18 17 18 20 20 16 19 25 22 22
56 59 64 63 62 60 59 55 54 52 50 48 48 45 44 42 42 42 41 39 39 38 36 35 34 36 33 31 26 22 19 19 20 19 15 17 18 21 22 19 15 18 23 22 24
52 58 59 66 67 64 61 59 57 54 54 53 51 50 48 47 46 45 44 43 41 38 36 34 35 32 32 29 27 23 19 16 19 16 13 13 17 20 21 18 14 16 20 17 19
51 53 57 61 67 67 65 62 60 58 56 56 54 53 52 50 48 47 47 45 42 40 37 35 32 31 29 27 25 22 21 16 16 15 11 10 14 15 15 16 13 12 15 15 16
52 52 54 56 62 66 66 66 64 61 60 59 57 56 54 51 49 49 46 45 44 40 37 34 33 29 26 28 24 21 19 17 10 14 12 8 10 11 11 8 9 8 12 12 12
54 54 53 55 56 60 64 66 65 64 62 61 60 60 57 56 52 50 49 47 45 42 38 36 33 29 25 28 25 23 20 16 13 10 13 6 7 12 11 10 5 4 13 14 13
54 55 55 55 56 56 57 61 63 62 63 64 63 62 60 58 54 52 50 47 44 41 38 35 30 26 24 23 24 25 23 16 14 13 11 9 7 9 11 13 5 0 7 14 9
56 57 58 58 55 54 54 55 55 56 57 59 59 60 58 58 54 51 46 43 42 40 35 30 28 25 23 20 19 24 26 21 18 14 13 12 7 7 8 11 9 3 1 3 1
60 58 59 58 58 56 54 54 55 56 56 55 56 55 55 55 48 46 44 42 41 37 31 27 27 27 22 19 17 20 25 23 22 21 15 13 11 9 8 10 13 8 3 5 5
64 62 61 61 59 56 56 56 55 54 54 54 54 54 52 51 47 45 43 39 37 35 28 28 33 22 23 23 19 21 25 24 22 23 19 18 15 11 8 10 13 10 7 2 5
70 66 63 63 61 58 58 58 57 54 54 52 53 53 49 48 46 41 41 37 34 31 28 27 28 17 24 23 22 22 22 23 23 22 19 21 20 19 13 10 17 12 13 11 4
76 74 69 66 62 60 57 59 57 56 55 54 53 51 48 48 46 39 38 35 33 32 26 27 26 22 25 24 21 22 17 20 23 25 19 21 22 19 18 14 15 14 16 12 5
79 78 77 73 67 65 63 62 58 55 56 53 52 50 48 48 45 37 34 29 31 28 25 28 24 25 28 28 24 20 23 23 24 24 18 18 19 20 20 17 20 20 17 18 18
78 79 79 80 75 71 68 66 63 60 58 53 51 48 46 45 42 36 33 29 30 26 27 28 24 28 31 28 29 24 23 23 24 21 20 14 16 20 22 21 26 26 23 23 21
81 80 79 80 80 79 75 72 68 65 62 58 55 53 50 47 43 38 36 32 30 28 30 30 24 28 32 29 29 24 23 23 23 21 16 15 16 24 19 22 26 29 31 24 20
74 82 82 80 81 80 81 78 74 72 68 65 62 59 56 52 48 44 40 37 35 33 36 31 30 31 35 31 27 25 27 26 23 20 16 17 18 23 23 23 27 29 32 28 27
58 73 81 83 83 83 80 81 81 78 76 73 67 64 61 58 53 48 44 42 41 39 38 38 36 34 36 31 28 28 27 27 25 22 17 17 17 20 24 25 31 30 30 31 31
48 59 70 80 86 86 82 82 84 84 83 78 73 67 64 59 57 53 50 49 48 46 43 41 42 35 37 33 31 31 28 27 27 22 17 16 16 18 23 32 29 27 33 31 33
48 53 56 69 77 85 86 86 88 87 82 80 77 75 70 65 60 55 53 55 53 51 46 45 46 42 37 35 37 32 28 29 27 22 20 15 19 21 28 31 23 29 30 34 38
48 53 54 56 64 75 84 90 91 86 82 80 80 79 73 69 66 62 61 62 61 58 51 51 49 49 39 39 40 33 32 29 27 25 20 17 21 26 30 26 20 26 27 32 37
47 52 56 55 57 62 73 80 84 88 87 84 82 80 79 74 71 67 67 66 65 62 57 57 51 53 44 41 40 40 37 31 27 25 22 19 23 28 31 23 19 26 27 30 36
49 53 55 58 58 58 60 66 75 77 82 87 85 82 78 76 73 72 72 72 69 67 66 61 56 53 47 48 44 41 37 36 30 25 26 22 24 28 31 25 23 28 30 30 35
41 54 57 56 55 55 57 58 59 67 74 78 85 85 79 78 77 76 74 74 73 72 68 60 55 55 57 54 47 42 39 38 32 29 27 29 27 30 32 29 28 28 31 34 35
28 46 51 52 53 53 54 54 50 51 61 73 78 76 79 80 79 79 77 77 78 77 73 66 63 60 59 55 51 43 42 39 35 32 32 32 33 34 36 31 30 31 32 34 38
23 38 45 49 51 50 50 49 46 43 46 55 65 70 71 74 77 80 81 83 81 77 72 66 65 63 60 56 50 44 43 43 38 37 35 37 38 39 36 33 33 36 35 30 35
Wind_Direction
218 218 217 216 216 213 213 217 220 225 231 235 238 241 247 255 264 276 285 293 301 301 311 319 322 324 326 333 344 346 344 346 345 341 350 354 357 346 356 12 9 36 48 35 17
225 223 222 221 221 220 220 222 226 229 235 240 242 246 251 259 268 278 283 290 296 301 305 316 318 321 322 332 344 344 340 341 339 338 349 358 359 352 8 14 16 38 50 36 32
225 227 227 226 226 226 227 228 230 233 239 242 247 250 254 262 268 274 278 286 292 300 307 311 315 319 322 327 337 339 336 334 338 345 349 360 359 10 5 15 22 42 48 47 43
226 227 228 230 228 229 230 233 235 238 242 245 248 252 257 262 265 271 277 283 291 297 302 309 312 317 319 323 329 338 333 331 341 342 351 5 3 14 5 8 29 55 55 54 54
227 227 229 229 231 232 232 236 235 239 241 245 248 253 258 261 264 269 276 282 287 294 298 307 309 314 315 316 322 333 330 337 331 336 351 2 5 11 0 358 29 58 77 66 61
227 229 229 230 230 234 235 237 239 241 245 248 251 254 257 260 265 269 274 278 283 288 297 302 306 308 306 307 313 320 325 332 319 326 334 355 8 1 3 350 22 59 88 88 71
229 230 231 231 231 233 235 238 240 244 246 249 252 254 257 261 264 269 273 277 282 287 292 296 299 297 294 298 304 306 314 318 308 309 314 338 351 357 5 345 1 75 93 96 90
228 229 231 232 232 234 236 238 240 244 247 250 253 256 258 260 265 267 271 276 280 283 289 290 292 293 288 291 296 296 296 297 302 282 290 312 353 347 2 332 332 100 104 104 99
227 228 230 231 233 233 235 238 240 243 246 248 250 253 255 260 264 266 269 273 278 281 285 286 287 286 283 284 283 285 288 296 298 293 281 295 332 343 347 324 307 189 124 101 101
229 226 228 230 232 234 235 238 241 242 243 247 250 253 255 257 260 264 270 273 276 277 280 284 283 279 280 277 271 275 284 294 297 287 278 283 296 324 318 296 278 281 101 135 78
232 229 227 229 231 232 234 237 239 240 243 246 249 252 255 258 260 262 264 268 270 273 275 276 271 275 274 273 264 262 270 278 285 287 278 273 275 286 284 262 258 247 196 36 129
234 233 231 229 228 230 233 234 237 240 242 245 248 250 253 258 258 262 264 266 268 271 272 272 272 290 271 265 253 248 254 264 274 282 287 289 286 273 283 244 233 221 247 218 167
234 234 234 233 231 229 231 234 236 238 240 242 244 247 251 253 257 256 260 260 261 264 266 267 275 271 266 265 261 257 259 264 272 279 285 283 284 288 289 263 233 230 244 276 255
233 235 235 235 233 231 231 233 233 236 237 238 241 244 244 247 250 248 251 255 262 265 268 264 273 261 265 266 265 265 265 262 265 269 269 269 275 282 280 282 270 243 232 242 171
234 234 235 236 234 233 233 235 235 235 237 237 241 242 243 245 247 247 250 252 258 267 273 271 280 273 263 264 260 255 244 247 251 257 258 268 274 277 278 282 278 268 231 226 207
233 234 235 235 236 235 234 235 236 236 238 238 239 239 240 241 242 241 245 249 256 260 266 270 274 273 273 277 271 271 266 264 264 267 275 260 262 268 272 274 270 268 249 234 213
231 233 234 235 236 236 236 236 236 237 237 238 237 238 238 239 240 237 239 241 250 256 262 265 271 277 274 274 272 275 273 273 271 269 272 267 255 258 267 263 262 262 254 241 234
231 231 232 234 235 236 236 237 237 237 238 238 236 238 240 240 240 239 241 245 250 255 262 269 267 267 273 279 283 280 270 265 272 268 261 258 254 253 254 254 253 255 251 245 239
232 232 231 232 234 235 236 237 238 238 238 239 237 237 239 241 242 241 243 246 251 255 262 266 266 263 269 277 276 271 273 272 270 273 266 262 265 265 258 252 248 254 257 247 245
236 233 231 232 232 233 235 236 237 238 239 239 239 239 241 243 243 243 245 249 251 254 259 266 267 264 263 267 270 270 270 272 269 273 277 266 264 266 257 251 253 252 254 253 247
240 237 232 232 232 232 233 233 236 237 239 240 241 241 242 244 246 247 250 251 252 255 260 264 268 263 262 261 259 263 268 268 271 266 269 267 263 264 255 256 258 255 249 245 245
245 241 236 234 232 231 233 233 235 237 238 240 241 243 244 244 246 248 249 251 252 253 256 259 261 264 261 259 263 261 261 265 266 262 263 269 262 260 263 266 265 260 251 240 236
247 243 239 235 234 233 233 234 235 235 237 238 240 240 241 242 244 246 247 250 253 255 257 257 256 258 257 260 261 259 257 262 262 263 258 263 264 261 263 266 269 262 258 247 236
245 237 237 235 233 234 235 234 235 236 235 236 238 239 241 243 242 243 244 247 251 253 254 255 254 257 256 256 256 258 257 258 261 258 252 255 261 267 266 264 260 262 264 260 248
240 227 230 230 231 233 234 234 234 232 233 235 236 237 236 239 241 242 243 245 247 248 248 249 250 254 257 257 257 256 256 255 257 254 253 251 256 260 260 259 264 264 267 268 266
233 220 223 228 228 231 233 235 235 234 234 232 233 234 235 235 237 240 241 244 246 249 250 251 252 252 253 254 255 252 255 254 250 248 250 248 250 255 258 258 261 264 264 266 264
222 216 219 224 225 228 230 231 231 234 235 234 235 233 233 234 235 237 241 243 245 249 251 251 251 251 250 250 248 248 249 252 247 245 247 247 250 253 259 262 261 260 261 258 265
Height
10951 10956 10959 10963 10967 10971 10974 10977 10980 10984 10986 10989 10992 10995 10997 10998 11000 11003 11003 11003 11003 11002 11002 10998 10996 10992 10990 10990 10989 10983 10977 10974 10972 10969 10967 10963 10961 10958 10954 10950 10949 10945 10942 10940 10937
10947 10951 10955 10959 10963 10967 10971 10974 10977 10980 10983 10985 10988 10991 10994 10995 10997 10998 10999 11000 11000 11000 11001 10998 10994 10990 10988 10987 10988 10984 10978 10973 10971 10968 10966 10963 10961 10959 10955 10953 10950 10946 10944 10942 10939
10940 10945 10950 10954 10959 10963 10967 10970 10973 10975 10978 10981 10984 10987 10989 10991 10994 10994 10996 10998 10998 10999 10999 10997 10993 10989 10986 10984 10986 10983 10979 10974 10973 10969 10966 10964 10963 10960 10957 10955 10954 10949 10947 10946 10942
10933 10938 10942 10948 10952 10957 10961 10965 10968 10971 10973 10976 10978 10982 10984 10988 10990 10991 10993 10995 10995 10996 10996 10995 10991 10987 10984 10982 10983 10982 10979 10974 10972 10970 10967 10965 10962 10961 10960 10959 10956 10952 10950 10950 10947
10925 10930 10934 10939 10944 10949 10954 10958 10962 10966 10968 10970 10973 10977 10980 10983 10985 10987 10989 10991 10992 10993 10993 10993 10988 10985 10981 10979 10978 10978 10977 10974 10972 10969 10967 10967 10966 10963 10962 10961 10958 10955 10953 10954 10951
10918 10922 10927 10931 10936 10941 10946 10951 10956 10960 10962 10965 10968 10971 10974 10978 10980 10983 10985 10987 10987 10989 10991 10990 10987 10982 10979 10978 10976 10975 10975 10973 10972 10970 10967 10967 10968 10966 10964 10963 10959 10956 10954 10955 10953
10910 10914 10919 10923 10928 10934 10938 10943 10948 10952 10956 10959 10962 10965 10968 10971 10975 10978 10980 10981 10982 10984 10986 10985 10985 10981 10976 10974 10974 10974 10973 10972 10972 10969 10967 10968 10968 10968 10966 10963 10960 10958 10957 10957 10955
10901 10905 10910 10915 10920 10925 10930 10935 10940 10944 10948 10951 10954 10957 10961 10963 10968 10972 10973 10975 10976 10978 10980 10981 10981 10978 10974 10970 10971 10970 10971 10971 10969 10968 10968 10968 10967 10967 10965 10962 10962 10960 10958 10957 10958
10891 10896 10901 10906 10911 10917 10923 10927 10932 10937 10940 10942 10945 10948 10953 10956 10960 10963 10967 10969 10971 10973 10975 10974 10974 10973 10972 10969 10966 10964 10966 10967 10967 10966 10966 10967 10967 10967 10964 10961 10961 10961 10959 10958 10957
10880 10886 10892 10897 10903 10908 10914 10920 10923 10927 10930 10932 10936 10940 10945 10948 10953 10957 10960 10962 10964 10966 10968 10968 10968 10968 10968 10968 10965 10962 10959 10960 10961 10962 10963 10964 10965 10966 10964 10962 10961 10962 10961 10957 10956
10868 10874 10881 10886 10893 10899 10906 10910 10913 10917 10920 10925 10929 10933 10936 10940 10947 10950 10952 10954 10956 10959 10962 10963 10961 10963 10964 10964 10963 10960 10957 10957 10958 10957 10959 10961 10962 10963 10963 10962 10961 10963 10961 10958 10957
10855 10862 10869 10875 10883 10890 10895 10899 10902 10907 10913 10918 10922 10924 10929 10933 10939 10941 10944 10948 10949 10952 10957 10956 10953 10961 10957 10957 10958 10957 10955 10956 10957 10954 10955 10955 10956 10960 10961 10960 10960 10962 10959 10959 10959
10841 10849 10856 10862 10871 10879 10884 10887 10892 10898 10903 10908 10912 10915 10922 10924 10929 10936 10937 10941 10944 10945 10948 10948 10949 10955 10950 10951 10953 10952 10953 10954 10955 10954 10954 10952 10952 10954 10958 10958 10958 10960 10958 10957 10958
10826 10834 10842 10849 10859 10867 10872 10875 10883 10889 10892 10899 10903 10909 10915 10917 10920 10929 10930 10934 10935 10938 10942 10941 10944 10946 10945 10945 10949 10949 10951 10950 10950 10950 10952 10950 10950 10951 10953 10954 10953 10953 10953 10951 10952
10811 10819 10827 10835 10845 10854 10861 10863 10872 10877 10881 10890 10894 10901 10906 10909 10914 10923 10924 10927 10928 10932 10934 10933 10938 10938 10937 10938 10942 10944 10943 10943 10944 10944 10948 10948 10949 10947 10947 10949 10946 10946 10947 10946 10944
10795 10803 10812 10819 10829 10838 10846 10851 10859 10866 10871 10880 10885 10892 10896 10899 10906 10914 10918 10921 10922 10927 10927 10928 10932 10931 10931 10934 10935 10939 10939 10940 10940 10943 10944 10946 10947 10943 10944 10945 10941 10941 10942 10941 10942
10779 10786 10795 10804 10813 10822 10832 10838 10846 10853 10859 10868 10875 10879 10885 10890 10898 10905 10909 10914 10917 10920 10919 10922 10925 10924 10924 10927 10928 10933 10934 10935 10936 10938 10941 10942 10941 10940 10942 10940 10938 10936 10935 10938 10941
10761 10768 10778 10789 10796 10805 10816 10824 10833 10838 10847 10853 10861 10867 10873 10881 10888 10896 10902 10907 10910 10913 10911 10916 10918 10918 10917 10921 10926 10927 10927 10928 10930 10932 10935 10936 10937 10936 10937 10936 10932 10931 10930 10933 10935
10745 10752 10762 10772 10778 10787 10799 10810 10814 10822 10829 10836 10846 10856 10862 10869 10878 10887 10894 10898 10901 10904 10904 10906 10910 10913 10912 10914 10918 10920 10920 10921 10925 10927 10929 10930 10932 10931 10930 10930 10925 10926 10925 10927 10929
10732 10736 10746 10750 10760 10771 10782 10792 10795 10803 10811 10823 10834 10844 10852 10861 10868 10877 10885 10888 10890 10893 10895 10898 10898 10906 10907 10910 10911 10913 10914 10915 10918 10922 10924 10925 10924 10923 10923 10919 10922 10922 10918 10920 10921
10721 10723 10729 10733 10744 10754 10763 10771 10774 10784 10800 10812 10822 10831 10842 10850 10859 10868 10874 10873 10878 10881 10887 10889 10891 10895 10900 10903 10901 10906 10909 10909 10911 10915 10916 10918 10917 10915 10912 10913 10920 10915 10914 10914 10914
10708 10710 10715 10720 10727 10734 10740 10748 10761 10774 10789 10798 10806 10816 10829 10839 10847 10854 10858 10859 10863 10869 10877 10878 10881 10882 10892 10894 10896 10902 10902 10904 10906 10908 10912 10914 10911 10909 10907 10910 10913 10907 10905 10906 10908
10694 10697 10701 10707 10711 10717 10725 10735 10746 10759 10772 10781 10790 10799 10809 10823 10830 10839 10842 10845 10849 10857 10865 10867 10874 10871 10884 10887 10889 10892 10895 10899 10901 10902 10906 10907 10906 10904 10901 10904 10906 10901 10898 10900 10901
10675 10679 10684 10690 10697 10704 10712 10721 10729 10745 10755 10762 10770 10783 10796 10806 10817 10825 10825 10828 10836 10842 10846 10854 10863 10866 10874 10874 10879 10883 10889 10892 10894 10897 10898 10900 10899 10897 10896 10898 10898 10894 10891 10891 10893
10653 10658 10666 10677 10686 10694 10700 10706 10714 10724 10734 10742 10749 10762 10779 10788 10798 10803 10808 10811 10819 10821 10829 10843 10853 10857 10859 10864 10871 10877 10880 10883 10887 10889 10893 10893 10893 10891 10888 10890 10892 10890 10888 10887 10887
10642 10649 10658 10668 10676 10682 10688 10696 10705 10713 10718 10723 10729 10747 10760 10770 10778 10780 10789 10795 10801 10807 10819 10833 10841 10845 10847 10853 10861 10867 10871 10874 10879 10880 10883 10886 10884 10882 10881 10886 10888 10886 10884 10883 10880
10642 10647 10654 10659 10667 10673 10679 10687 10695 10701 10705 10712 10720 10731 10741 10750 10760 10765 10773 10776 10786 10795 10805 10819 10824 10829 10835 10840 10849 10859 10862 10863 10869 10871 10873 10877 10876 10874 10876 10879 10881 10880 10880 10879 10877